Location: Unspecified
(0.0000°N, 0.0000°E)
Time: 10:05:02
(UTC+01:00)

Haruka - Visible Passes

Search period start: 01 November 2014 00:00
Search period end: 11 November 2014 00:00
Orbit: 526 x 21252 km, 31.2° (Epoch: 30 October)

Date Brightness Start Highest point End Pass type
(mag) Time Alt. Az. Time Alt. Az. Time Alt. Az.
01 Nov 7.1 00:00:00 13° SSW 23:59:41 13° SW 00:04:52 11° SSW visible
02 Nov 7.6 14:46:06 10° NW 19:04:01 74° SW 19:51:41 10° SE visible
03 Nov 7.3 16:08:37 10° NW 20:30:16 54° SW 21:00:44 10° SE visible
04 Nov 7.1 17:45:34 10° WNW 21:49:40 35° SW 22:08:59 10° SSE visible
05 Nov 3.7 04:45:12 38° SSE 04:45:52 42° SE 04:52:31 10° ENE visible
05 Nov 7.0 22:13:40 10° W 23:05:58 19° SW 23:16:24 10° S visible
06 Nov 3.7 05:50:50 12° WSW 05:54:36 65° NNW 06:07:59 10° NE visible
08 Nov 7.5 15:08:13 10° NW 19:26:37 62° SW 20:09:18 10° SE visible
09 Nov 7.3 16:34:35 10° WNW 20:52:08 42° SW 21:18:03 10° SSE visible
10 Nov 5.4 03:56:59 17° E 03:56:59 17° E 03:58:54 10° E visible
10 Nov 7.1 18:29:55 10° WNW 22:11:19 26° SW 22:26:08 10° SSE visible
